TimeCST,TemperatureF,Dew PointF,Humidity,Sea Level PressureIn,VisibilityMPH,Wind Direction,Wind SpeedMPH,Gust SpeedMPH,PrecipitationIn,Events,Conditions,WindDirDegrees,DateUTC
12:11 AM,23.0,12.2,63,30.44,10.0,NNW,3.5,-,N/A,,Clear,340,2012-11-16 06:11:00
12:31 AM,21.2,12.2,68,30.44,10.0,Calm,Calm,-,N/A,,Clear,0,2012-11-16 06:31:00
12:52 AM,21.2,12.2,68,30.44,10.0,Calm,Calm,-,N/A,,Clear,0,2012-11-16 06:52:00
1:11 AM,21.2,12.2,68,30.44,10.0,Calm,Calm,-,N/A,,Clear,0,2012-11-16 07:11:00
1:31 AM,19.4,10.4,68,30.43,10.0,Calm,Calm,-,N/A,,Clear,0,2012-11-16 07:31:00
1:52 AM,17.6,10.4,73,30.44,10.0,Calm,Calm,-,N/A,,Clear,0,2012-11-16 07:52:00
2:11 AM,17.6,10.4,73,30.44,10.0,Calm,Calm,-,N/A,,Clear,0,2012-11-16 08:11:00
2:31 AM,17.6,10.4,73,30.44,10.0,Calm,Calm,-,N/A,,Clear,0,2012-11-16 08:31:00
2:52 AM,17.6,10.4,73,30.44,10.0,Calm,Calm,-,N/A,,Clear,0,2012-11-16 08:52:00
3:11 AM,15.8,10.4,79,30.44,10.0,Calm,Calm,-,N/A,,Clear,0,2012-11-16 09:11:00
3:31 AM,15.8,10.4,79,30.44,10.0,North,4.6,-,N/A,,Clear,350,2012-11-16 09:31:00
3:51 AM,17.6,10.4,73,30.44,10.0,North,4.6,-,N/A,,Clear,350,2012-11-16 09:51:00
4:11 AM,19.4,10.4,68,30.44,10.0,North,5.8,-,N/A,,Clear,350,2012-11-16 10:11:00
4:32 AM,19.4,10.4,68,30.44,10.0,North,4.6,-,N/A,,Clear,360,2012-11-16 10:32:00
4:51 AM,19.4,10.4,68,30.44,10.0,North,4.6,-,N/A,,Clear,350,2012-11-16 10:51:00
5:11 AM,17.6,10.4,73,30.44,10.0,North,5.8,-,N/A,,Clear,350,2012-11-16 11:11:00
5:31 AM,19.4,10.4,68,30.44,10.0,North,4.6,-,N/A,,Clear,360,2012-11-16 11:31:00
6:11 AM,19.4,12.2,74,30.45,10.0,Calm,Calm,-,N/A,,Clear,0,2012-11-16 12:11:00
6:31 AM,15.8,10.4,79,30.45,10.0,Calm,Calm,-,N/A,,Clear,0,2012-11-16 12:31:00
6:51 AM,15.8,10.4,79,30.45,10.0,North,4.6,-,N/A,,Clear,360,2012-11-16 12:51:00
7:11 AM,17.6,10.4,73,30.45,10.0,North,3.5,-,N/A,,Clear,10,2012-11-16 13:11:00
7:31 AM,17.6,10.4,73,30.46,10.0,North,3.5,-,N/A,,Clear,360,2012-11-16 13:31:00
7:51 AM,17.6,12.2,79,30.46,10.0,Calm,Calm,-,N/A,,Clear,0,2012-11-16 13:51:00
8:11 AM,23.0,15.8,74,30.46,10.0,North,3.5,-,N/A,,Clear,10,2012-11-16 14:11:00
8:31 AM,26.6,17.6,69,30.46,10.0,Calm,Calm,-,N/A,,Clear,0,2012-11-16 14:31:00
8:51 AM,28.4,19.4,69,30.46,10.0,NE,3.5,-,N/A,,Clear,40,2012-11-16 14:51:00
9:11 AM,28.4,19.4,69,30.47,10.0,Calm,Calm,-,N/A,,Mostly Cloudy,0,2012-11-16 15:11:00
9:31 AM,32.0,23.0,69,30.46,10.0,ENE,3.5,-,N/A,,Scattered Clouds,70,2012-11-16 15:31:00
9:51 AM,32.0,23.0,69,30.46,10.0,East,3.5,-,N/A,,Scattered Clouds,90,2012-11-16 15:51:00
10:11 AM,33.8,23.0,65,30.47,10.0,SE,8.1,-,N/A,,Clear,140,2012-11-16 16:11:00
10:32 AM,33.8,23.0,65,30.47,10.0,SE,6.9,-,N/A,,Scattered Clouds,140,2012-11-16 16:32:00
10:51 AM,33.8,21.2,60,30.47,10.0,South,6.9,-,N/A,,Scattered Clouds,170,2012-11-16 16:51:00
11:11 AM,35.6,21.2,56,30.46,10.0,South,9.2,-,N/A,,Clear,180,2012-11-16 17:11:00
11:32 AM,35.6,21.2,56,30.46,10.0,SE,5.8,-,N/A,,Clear,140,2012-11-16 17:32:00
11:51 AM,35.6,21.2,56,30.46,10.0,SSE,5.8,-,N/A,,Clear,160,2012-11-16 17:51:00
12:11 PM,35.6,21.2,56,30.45,10.0,South,5.8,-,N/A,,Clear,180,2012-11-16 18:11:00
12:32 PM,35.6,21.2,56,30.45,10.0,SE,5.8,-,N/A,,Clear,130,2012-11-16 18:32:00
12:51 PM,37.4,21.2,52,30.44,10.0,SSE,4.6,-,N/A,,Clear,150,2012-11-16 18:51:00
1:11 PM,37.4,21.2,52,30.44,10.0,SSE,4.6,-,N/A,,Clear,160,2012-11-16 19:11:00
1:31 PM,37.4,21.2,52,30.43,10.0,Calm,Calm,-,N/A,,Clear,0,2012-11-16 19:31:00
1:51 PM,37.4,21.2,52,30.41,10.0,Calm,Calm,-,N/A,,Clear,0,2012-11-16 19:51:00
2:12 PM,35.6,19.4,52,30.41,10.0,SE,5.8,-,N/A,,Clear,130,2012-11-16 20:12:00
2:31 PM,35.6,21.2,56,30.40,10.0,East,4.6,-,N/A,,Clear,100,2012-11-16 20:31:00
2:51 PM,35.6,19.4,52,30.38,10.0,SE,3.5,-,N/A,,Clear,130,2012-11-16 20:51:00
3:12 PM,35.6,21.2,56,30.38,10.0,East,4.6,-,N/A,,Clear,90,2012-11-16 21:12:00
3:31 PM,33.8,21.2,60,30.37,10.0,East,6.9,-,N/A,,Clear,80,2012-11-16 21:31:00
3:51 PM,32.0,21.2,64,30.37,10.0,ENE,4.6,-,N/A,,Clear,70,2012-11-16 21:51:00
4:12 PM,30.2,21.2,69,30.37,10.0,ENE,3.5,-,N/A,,Clear,60,2012-11-16 22:12:00
4:31 PM,30.2,21.2,69,30.37,10.0,Calm,Calm,-,N/A,,Clear,0,2012-11-16 22:31:00
4:51 PM,28.4,21.2,74,30.36,10.0,NE,3.5,-,N/A,,Clear,40,2012-11-16 22:51:00
5:12 PM,28.4,21.2,74,30.36,10.0,NNE,3.5,-,N/A,,Clear,30,2012-11-16 23:12:00
5:31 PM,28.4,19.4,69,30.36,10.0,NE,3.5,-,N/A,,Clear,40,2012-11-16 23:31:00
5:51 PM,28.4,21.2,74,30.35,10.0,NE,3.5,-,N/A,,Clear,50,2012-11-16 23:51:00
6:12 PM,28.4,21.2,74,30.35,10.0,NNE,4.6,-,N/A,,Clear,30,2012-11-17 00:12:00
6:31 PM,26.6,19.4,74,30.35,10.0,NNE,4.6,-,N/A,,Clear,30,2012-11-17 00:31:00
6:51 PM,28.4,21.2,74,30.34,10.0,NE,4.6,-,N/A,,Clear,50,2012-11-17 00:51:00
7:11 PM,28.4,21.2,74,30.34,10.0,Calm,Calm,-,N/A,,Clear,0,2012-11-17 01:11:00
7:51 PM,28.4,21.2,74,30.33,10.0,ENE,3.5,-,N/A,,Clear,60,2012-11-17 01:51:00
8:12 PM,28.4,21.2,74,30.33,10.0,ENE,3.5,-,N/A,,Clear,60,2012-11-17 02:12:00
8:31 PM,26.6,21.2,80,30.33,10.0,Calm,Calm,-,N/A,,Clear,0,2012-11-17 02:31:00
8:51 PM,26.6,21.2,80,30.33,10.0,NE,4.6,-,N/A,,Clear,50,2012-11-17 02:51:00
9:12 PM,26.6,21.2,80,30.33,10.0,Calm,Calm,-,N/A,,Clear,0,2012-11-17 03:12:00
9:51 PM,26.6,21.2,80,30.32,10.0,NNE,4.6,-,N/A,,Clear,20,2012-11-17 03:51:00
10:12 PM,26.6,21.2,80,30.32,10.0,NNE,4.6,-,N/A,,Clear,20,2012-11-17 04:12:00
10:31 PM,24.8,21.2,86,30.31,10.0,North,3.5,-,N/A,,Clear,10,2012-11-17 04:31:00
10:51 PM,24.8,19.4,80,30.31,10.0,Calm,Calm,-,N/A,,Clear,0,2012-11-17 04:51:00
11:12 PM,21.2,17.6,86,30.31,10.0,Calm,Calm,-,N/A,,Clear,0,2012-11-17 05:12:00
11:31 PM,23.0,17.6,80,30.31,10.0,Calm,Calm,-,N/A,,Scattered Clouds,0,2012-11-17 05:31:00
11:51 PM,24.8,19.4,80,30.31,10.0,Calm,Calm,-,N/A,,Scattered Clouds,0,2012-11-17 05:51:00